Location: Vancouver
(49.2500°N, 123.1330°W)
Time: 01:47:21

deb Explorer IX - Visible Passes

Search period start: 24 October 2016 00:00
Search period end: 03 November 2016 00:00
Orbit: 550 x 1124 km, 38.8° (Epoch: 23 October)

Date Brightness Start Highest point End Pass type
(mag) Time Alt. Az. Time Alt. Az. Time Alt. Az.
24 Oct ? 04:38:30 16° SSE 04:38:30 16° SSE 04:40:17 10° SSE visible
25 Oct ? 04:21:42 10° SSE 04:21:42 10° SSE 04:21:48 10° SSE visible
31 Oct ? 20:44:09 10° SSW 20:44:41 12° SSW 20:44:41 12° SSW visible
01 Nov ? 20:25:53 10° SSW 20:27:30 16° S 20:27:30 16° S visible
02 Nov ? 20:07:38 10° SSW 20:10:15 18° SSE 20:10:15 18° SSE visible
